Regional Weather Roundup
Issued by NWS

Home | Current Version | Previous Version | Text Only | Print | Product List | Glossary Off
Versions: 1 2 3 4 5 6 7 8 9 10 11 12 13 14 15 16 17 18 19 20 21 22 23 24 25 26 27 28 29 30 31 32 33 34 35 36 37 38 39 40 41 42 43 44 45 46 47 48 49 50

000
ASUS43 KMPX 030710
RWRMN
WEATHER ROUNDUP FOR MINNESOTA
NATIONAL WEATHER SERVICE TWIN CITIES/CHANHASSEN MN
200 AM CDT WED SEP 03 2014


NOTE: "FAIR" INDICATES FEW OR NO CLOUDS BELOW 12,000 FEET WITH NO
SIGNIFICANT WEATHER AND/OR OBSTRUCTIONS TO VISIBILITY. N/A MEANS
CURRENT SKY AND/OR WEATHER CONDITIONS ARE NOT AVAILABLE.

MNZ060>063-068>070-030800-
   Twin Cities Metro

CITY           SKY/WX    TMP DP  RH WIND       PRES   REMARKS
TWIN CITIES    PTCLDY    65  57  75 S6        29.88S
ST PAUL        CLEAR     61  58  90 SE7       29.89S
CRYSTAL        CLEAR     63  56  78 S5        29.86S
BLAINE         CLEAR     63  59  88 S6        29.87S
LAKEVILLE      CLEAR     57  55  94 CALM      29.90S
EDEN PRAIRIE   CLEAR     61  58  90 S6        29.87F
SOUTH ST PAUL  CLEAR     62  57  86 SE6       29.89S
LAKE ELMO      FAIR      57  55  94 S5        29.89F
$$
MNZ001>005-007-008-013>017-022>024-027-028-030800-
   Northwest Minnesota

CITY           SKY/WX    TMP DP  RH WIND       PRES   REMARKS
BEMIDJI        PTCLDY    59  55  86 SW5       29.77S
HALLOCK        FOG       52  48  87 CALM      29.74R VSB 3/4
ROSEAU         HAZE      50  45  81 CALM      29.75S VSB 1/2
WARROAD        CLEAR     50  46  87 CALM      29.75S
THIEF RVR FALL CLEAR     55  52  88 CALM      29.75R
CROOKSTON      CLEAR     54  52  94 S5        29.74S
FOSSTON        PTCLDY    54  52  94 S6        29.77S
DETROIT LAKES  CLEAR     61  55  82 S7        29.80S
MOORHEAD       CLEAR     66  57  72 S7        29.76S
PARK RAPIDS    CLEAR     60  55  83 S5        29.80S
MAHNOMEN       FAIR      57  55  90 S7        29.76S
$$
MNZ006-009>011-018-025>026-030800-
   North Central Minnesota

CITY           SKY/WX    TMP DP  RH WIND       PRES   REMARKS
BAUDETTE       CLEAR     51  50  96 CALM      29.75R
FLAG ISLAND    CLEAR     57  54  88 NW3       29.74R
INTL FALLS     CLEAR     52  51  97 SW3       29.75R
WASKISH        CLEAR     54  52  94 CALM      29.76R
LONGVILLE      PTCLDY    59  55  88 S3        29.80R
GRAND RAPIDS   PTCLDY    55  52  88 S5        29.81F
CRANE LAKE     PTCLDY    52  52 100 CALM      29.78S FOG
ORR            CLEAR     54  52  94 SE3       29.76S
COOK           CLEAR     54  52  94 CALM      29.79F
WALKER         FAIR      60  56  85 SW5       29.78S
$$
MNZ012-019>021-037-030800-
   Northeast Minnesota

CITY           SKY/WX    TMP DP  RH WIND       PRES   REMARKS
DULUTH         PTCLDY    59  54  83 CALM      29.84R
ELY            MOCLDY    54  52  94 SW5       29.79F
HIBBING        PTCLDY    52  50  93 CALM      29.82S FOG
EVELETH        FOG       52  50  93 CALM      29.83S VSB 1
DULUTH HARBOR  MOCLDY    63  57  82 E3        29.84R
TWO HARBORS    CLOUDY    57  52  82 CALM      29.81S
SILVER BAY     DRIZZLE   54  54 100 CALM      29.81F
GRAND MARAIS     N/A     56  55  97 CALM      29.79F
G MARAIS ARPRT CLOUDY    52  48  87 S5        29.82F
$$
MNZ029>031-032-039>041-046>048-054>057-064-030800-
   West Central Minnesota

CITY           SKY/WX    TMP DP  RH WIND       PRES   REMARKS
FERGUS FALLS   PTCLDY    61  54  77 CALM      29.80R
WHEATON        CLEAR     59  55  88 S8        29.78F
MORRIS         CLEAR     59  55  88 S8        29.79F
ALEXANDRIA     PTCLDY    64  56  75 S10       29.83S
ELBOW LAKE     FAIR      60  56  85 S10       29.79S
WADENA         PTCLDY    57  54  88 S5        29.80S
GLENWOOD       CLEAR     63  55  77 S8        29.84S
APPLETON       CLEAR     63  55  77 S3        29.80F
BENSON         CLEAR     57  55  94 S7        29.82S
ORTONVILLE     CLEAR     61  55  82 S6        29.79F
MADISON        CLEAR     64  59  82 S8        29.81F
WILLMAR        FAIR      63  55  77 CALM      29.85F
$$
MNZ033>034-036-042>043-049>051-058-059-030800-
   Central Minnesota

CITY           SKY/WX    TMP DP  RH WIND       PRES   REMARKS
ST CLOUD       PTCLDY    62  56  80 S5        29.84F
SAUK CENTRE    PTSUNNY   59  55  88 S6        29.83F
PAYNESVILLE    HVY RAIN  60  55  83 S6        29.85S
AITKIN         CLEAR     66  55  68 S5        29.81S
PINE RIVER     PTCLDY    57  54  88 CALM      29.84S
BRAINERD       CLEAR     58  54  86 S7        29.83R
STAPLES        PTCLDY    61  54  77 S8        29.81S
LONG PRAIRIE   FAIR      61  54  77 S7        29.83F
LITTLE FALLS   PTCLDY    59  54  82 CALM      29.83F
LITCHFIELD     CLEAR     63  59  88 CALM      29.86F
BUFFALO        CLEAR     62  56  81 S3        29.87S
MAPLE LAKE     CLEAR     62  58  88 S5        29.87S
$$
MNZ037-044-045-052-053-030800-
   East Central Minnesota

CITY           SKY/WX    TMP DP  RH WIND       PRES   REMARKS
PRINCETON      CLEAR     63  57  82 S2        29.86R
MORA           CLEAR     61  54  77 SW5       29.86S
CAMBRIDGE      CLEAR     63  54  72 S5        29.84S
RUSH CITY      PTCLDY    61  55  82 S3        29.86S
MOOSE LAKE     CLEAR     54  52  94 SW5       29.82S
HINCKLEY       FAIR      57  55  94 SW3       29.85R
CLOQUET        PTCLDY    61  54  77 CALM      29.84R
MCGREGOR       CLEAR     57  55  94 S3        29.83R
$$
MNZ071>073-080-081-089-090-097-098-030800-
   Southwest Minnesota

CITY           SKY/WX    TMP DP  RH WIND       PRES   REMARKS
MONTEVIDEO     CLEAR     61  55  82 SW8       29.83F
GRANITE FALLS  CLEAR     59  56  92 S8        29.85F
CANBY          CLEAR     65  57  74 S8G17     29.82F
MARSHALL       CLEAR     64  55  72 SW15      29.82F
REDWOOD FALLS  CLEAR     62  57  83 S13       29.85F
OLIVIA         CLEAR     61  54  77 S6        29.85S
PIPESTONE      PTCLDY    61  55  82 SE6       29.86F
WINDOM         CLEAR     61  57  88 S6        29.90F
WORTHINGTON    PTCLDY    63  57  82 S13       29.90F
JACKSON        CLEAR     61  55  82 S8        29.92S
TRACY          CLEAR     62  57  84 S13       29.86F
SLAYTON        CLEAR     55  55  97 CALM      29.89F
$$
MNZ065>067-074>077-082>085-091>093-030800-
   South Central Minnesota

CITY           SKY/WX    TMP DP  RH WIND       PRES   REMARKS
MANKATO        CLEAR     61  54  77 S7        29.91R
NEW ULM        CLEAR     59  57  94 S8        29.88F
ST JAMES       CLEAR     61  57  88 S5        29.91S
FAIRMONT       CLEAR     57  54  88 S6        29.92S
GLENCOE        CLEAR     62  55  79 S6        29.86F
FARIBAULT      CLEAR     63  55  77 S6        29.92S
OWATONNA       CLEAR     61  55  82 S8        29.93S
WASECA         CLEAR     55  52  88 S3        29.94S
ALBERT LEA     CLEAR     63  59  88 S3        29.94F
$$
MNZ078>079-086>088-094>096-030800-
   Southeast Minnesota

CITY           SKY/WX    TMP DP  RH WIND       PRES   REMARKS
ROCHESTER      CLEAR     57  54  89 S8        29.96S
RED WING       CLEAR     57  55  94 CALM      29.91R
STANTON        PTCLDY    60  56  87 S3        29.90S
DODGE CENTER   PTCLDY    61  57  88 S7        29.94S
WINONA         CLEAR     59  59 100 CALM      29.94S
AUSTIN         CLEAR     57  55  94 S3        29.95S
PRESTON        CLEAR     59  59 100 CALM      29.97R
$$
ABBREVIATIONS USED IN REMARKS
   TC - TEMPERATURES IN CELSIUS
  WCI - WIND CHILL INDEX
   HX - HEAT INDEX
  VSB - VISIBILITY
$$


USA.gov is the U.S. government's official web portal to all federal, state and local government web resources and services.